METEOR 2-17 DEB

Satellite information

Favourite Embed

Satellite Type and Status

DEBRISIN ORBIT

Key statistics

Satellite METEOR 2-17 DEB at a glance.

Uptime

13674

Days in orbit

Revolutions

≈ 14.0

Per day

Orbit

LEO

Low Earth Orbit

Inclination

82.6

Latest

Satellite identification and parameters

Extended collection of information and parameters for METEOR 2-17 DEB.

Object identification

Identified? True

Debris? True

Object name: METEOR 2-17 DEB

International designator: 1988-005AL

Object number (NORAD): 38283

Object ID (CCSDS): 38283

Country: COMMONWEALTH OF INDEPENDENT STATES (CIS)

Current information (Y/N): Y

RCS size: SMALL

Orbital parameters

Period: 102.838 minutes

Inclination: 82.5501 deg

SMA: 7271.038 km

Apoapsis: 904.115 km

Periapsis: 881.691 km

RAAN: 196.8242 deg

Eccentricy: 0.001542

Argument of periapsis: 167.2137 deg

Mean anomaly: 192.9427 deg

Mean motion: 14.00258296 rev/day

Mean motion (dot): 0.00000929 rev/day2

B* drag term: 0.00061787 1/REarth

Two-line elements (TLE)

Creation date: July 2, 2025, 2:08 a.m.

Reference frame: TEME

Reference center: EARTH

Epoch: July 1, 2025, 5:56 p.m. UTC

TLE line 0: 0 METEOR 2-17 DEB

TLE line 1: 1 38283U 88005AL 25182.74788998 .00000929 00000-0 61787-3 0 9995

TLE line 2: 2 38283 82.5501 196.8242 0015420 167.2137 192.9427 14.00258296 54682

Live tracking on map

Real-time ground track for satellite METEOR 2-17 DEB.

In-orbit conjunctions

A list of the most updated potential collisions computed for object METEOR 2-17 DEB.

Target Orbit TCA Probability of collision Miss distance Type
MSX SSO 2024-12-27 22:35:46 0.0002943857 145.0 (m) PAYLOAD
CZ-6A DEB SSO 2024-09-26 12:55:53 0.0005801986 429.0 (m) DEBRIS
FENGYUN 1C DEB SSO 2024-09-24 07:50:14 0.000166483 543.0 (m) DEBRIS

Associated space launch

Second generation soviet meteorological satellite

METEOR 2-17 DEB was lifted into orbit during the mission ‘Tsiklon-3 | Meteor-2 17’, on board a Tsiklon-3 space rocket.

The launch took place on Jan. 30, 1988, 10:59 a.m. from 32/1.

For more information about the launch, click the button.

Launch to space Tsiklon-3 | Meteor-2 17
Tsiklon-3 | Meteor-2 17

Agency: N/A

Status: Launch Successful

Launch date: Jan. 30, 1988, 10:59 a.m. UTC

Rocket: Tsiklon-3

Launch pad: 32/1

Location: Plesetsk Cosmodrome, Russian Federation

...

Latest news about this satellite

There are no fresh news available about this satellite. Check back as we update our databases every day.


Newsletter sign-up

Weekly statistics, charts and insights to help you stay on top of the space industry.